TimeEDT,TemperatureF,Dew PointF,Humidity,Sea Level PressureIn,VisibilityMPH,Wind Direction,Wind SpeedMPH,Gust SpeedMPH,PrecipitationIn,Events,Conditions,WindDirDegrees,DateUTC
12:53 AM,72.0,64.9,78,30.04,10.0,SW,5.8,-,N/A,,Partly Cloudy,230,2013-07-08 04:53:00
1:53 AM,71.1,66.0,84,30.02,10.0,WSW,8.1,-,N/A,,Clear,240,2013-07-08 05:53:00
2:53 AM,71.1,66.0,84,30.02,10.0,South,5.8,-,N/A,,Clear,190,2013-07-08 06:53:00
3:53 AM,71.1,64.0,78,30.02,10.0,WSW,6.9,-,N/A,,Mostly Cloudy,240,2013-07-08 07:53:00
4:53 AM,71.1,64.0,78,30.02,10.0,SW,4.6,-,N/A,,Mostly Cloudy,220,2013-07-08 08:53:00
5:53 AM,70.0,64.0,81,30.02,10.0,SSW,4.6,-,N/A,,Clear,200,2013-07-08 09:53:00
6:53 AM,71.1,66.0,84,30.03,10.0,SSW,6.9,-,N/A,,Clear,200,2013-07-08 10:53:00
7:53 AM,75.0,66.9,76,30.04,10.0,SW,4.6,-,N/A,,Partly Cloudy,230,2013-07-08 11:53:00
8:53 AM,75.0,68.0,79,30.03,10.0,SSW,4.6,-,0.00,Rain,Light Rain,210,2013-07-08 12:53:00
9:53 AM,78.1,69.1,74,30.04,10.0,South,5.8,-,0.00,,Clear,190,2013-07-08 13:53:00
10:53 AM,79.0,69.1,72,30.04,10.0,South,8.1,-,N/A,,Clear,190,2013-07-08 14:53:00
11:53 AM,82.0,70.0,67,30.03,10.0,SSW,11.5,-,N/A,,Clear,210,2013-07-08 15:53:00
12:53 PM,84.0,72.0,67,30.02,10.0,South,10.4,-,N/A,,Clear,180,2013-07-08 16:53:00
1:53 PM,86.0,72.0,63,30.00,10.0,SW,11.5,-,0.00,Rain,Light Rain,220,2013-07-08 17:53:00
2:53 PM,84.0,73.0,69,29.99,10.0,South,8.1,-,0.00,,Mostly Cloudy,180,2013-07-08 18:53:00
3:48 PM,78.8,71.6,78,30.01,10.0,ENE,5.8,-,0.05,,Mostly Cloudy,60,2013-07-08 19:48:00
3:53 PM,80.1,72.0,76,29.99,10.0,NE,9.2,-,0.05,,Mostly Cloudy,50,2013-07-08 19:53:00
4:24 PM,75.2,69.8,83,30.02,2.5,Variable,3.5,16.1,0.25,Rain,Heavy Rain,0,2013-07-08 20:24:00
4:26 PM,75.2,69.8,83,30.02,1.8,Calm,Calm,-,0.36,Rain,Heavy Rain,0,2013-07-08 20:26:00
4:36 PM,75.2,69.8,83,30.01,6.0,East,4.6,-,0.38,Rain,Light Rain,100,2013-07-08 20:36:00
4:53 PM,77.0,70.0,79,30.00,8.0,Variable,3.5,-,0.41,Rain,Light Rain,0,2013-07-08 20:53:00
5:53 PM,78.1,70.0,76,29.99,10.0,Calm,Calm,-,0.02,Rain,Light Rain,0,2013-07-08 21:53:00
6:53 PM,77.0,71.1,82,29.99,10.0,SE,5.8,-,N/A,,Overcast,130,2013-07-08 22:53:00
7:53 PM,77.0,71.1,82,29.99,10.0,South,6.9,-,N/A,,Overcast,180,2013-07-08 23:53:00
8:53 PM,77.0,71.1,82,29.99,10.0,South,5.8,-,N/A,,Overcast,180,2013-07-09 00:53:00
9:53 PM,75.9,70.0,82,29.99,10.0,South,4.6,-,0.00,,Overcast,170,2013-07-09 01:53:00
10:53 PM,75.9,70.0,82,29.99,10.0,South,6.9,-,N/A,,Overcast,180,2013-07-09 02:53:00
11:53 PM,75.9,70.0,82,29.99,10.0,South,6.9,-,N/A,,Overcast,170,2013-07-09 03:53:00